Weather History for KAIZ - May, 2013

Change the Weather History Date:

Tuesday, May 14, 2013

  Actual Average Record
Temperature  
Mean Temperature 73 °F -  
Max Temperature 91 °F 73 °F 91 °F (2013)
Min Temperature 55 °F 52 °F 35 °F (2000)
Cooling Degree Days 8    
Growing Degree Days 23 (Base 50)    
Moisture  
Dew Point 47 °F    
Average Humidity 40    
Maximum Humidity 77    
Minimum Humidity 21    
Precipitation  
Precipitation 0.00 in - - ()
Sea Level Pressure  
Sea Level Pressure 29.94 in    
Wind  
Wind Speed 10 mph (SW)    
Max Wind Speed 23 mph    
Max Gust Speed 30 mph    
Visibility 10 miles    
Events      
Averages and records for this station are not official NWS values.
T = Trace of Precipitation, MM = Missing Value Source: NWS Daily Summary

Daily Weather History Graph

Daily Weather History Graph

Search for Another Location

Airport or City:

Trip Planner

Search our weather history database for the weather conditions in past years. The results will help you decide how hot, cold, wet, or windy it might be!

Date:

Astronomy

May. 14, 2013 Rise Set
Actual Time 6:00 AM CDT 8:13 PM CDT
Civil Twilight 5:30 AM CDT 8:42 PM CDT
Nautical Twilight 4:54 AM CDT 9:19 PM CDT
Astronomical Twilight 4:15 AM CDT 9:58 PM CDT
Moon 9:40 AM CDT (5/14) No Moon Set
Length of Visible Light 15h 12m
Length of Day
14h 13m
Waxing Crescent, 19% of the Moon is Illuminated
May 14
Waxing Crescent
May 17
First Quarter
May 24
Full
May 31
Last Quarter
Jun 8
New

Hourly Weather History & Observations

Time (CDT) Temp. Dew Point Humidity Pressure Visibility Wind Dir Wind Speed Gust Speed Precip Events Conditions
12:15 AM 62.6 °F 48.2 °F 59% 30.01 in 10.0 mi South 8.1 mph - N/A   Clear
12:35 AM 62.6 °F 48.2 °F 59% 30.01 in 10.0 mi South 6.9 mph - N/A   Clear
12:55 AM 62.6 °F 48.2 °F 59% 30.00 in 10.0 mi South 5.8 mph - N/A   Clear
1:15 AM 60.8 °F 48.2 °F 63% 29.99 in 10.0 mi South 5.8 mph - N/A   Clear
1:35 AM 60.8 °F 48.2 °F 63% 29.99 in 10.0 mi South 5.8 mph - N/A   Clear
1:55 AM 60.8 °F 48.2 °F 63% 29.98 in 10.0 mi South 4.6 mph - N/A   Clear
2:15 AM 60.8 °F 48.2 °F 63% 29.98 in 10.0 mi South 5.8 mph - N/A   Clear
2:35 AM 59.0 °F 48.2 °F 67% 29.97 in 10.0 mi South 4.6 mph - N/A   Clear
2:55 AM 57.2 °F 48.2 °F 72% 29.97 in 10.0 mi South 5.8 mph - N/A   Clear
3:15 AM 57.2 °F 48.2 °F 72% 29.96 in 10.0 mi South 5.8 mph - N/A   Clear
3:35 AM 57.2 °F 48.2 °F 72% 29.96 in 10.0 mi South 3.5 mph - N/A   Clear
3:55 AM 57.2 °F 48.2 °F 72% 29.96 in 10.0 mi South 3.5 mph - N/A   Clear
4:15 AM 55.4 °F 48.2 °F 77% 29.95 in 10.0 mi South 4.6 mph - N/A   Clear
4:35 AM 55.4 °F 48.2 °F 77% 29.95 in 10.0 mi SSW 5.8 mph - N/A   Clear
4:55 AM 60.8 °F 51.8 °F 72% 29.95 in 10.0 mi SW 8.1 mph - N/A   Clear
5:15 AM 64.4 °F 50.0 °F 59% 29.95 in 10.0 mi WSW 8.1 mph - N/A   Clear
5:35 AM 66.2 °F 50.0 °F 56% 29.95 in 10.0 mi WSW 8.1 mph - N/A   Clear
5:55 AM 66.2 °F 48.2 °F 52% 29.95 in 10.0 mi WSW 11.5 mph - N/A   Clear
6:15 AM 66.2 °F 48.2 °F 52% 29.96 in 10.0 mi WSW 6.9 mph - N/A   Clear
6:35 AM 66.2 °F 48.2 °F 52% 29.96 in 10.0 mi WSW 8.1 mph - N/A   Clear
6:55 AM 68.0 °F 48.2 °F 49% 29.96 in 10.0 mi WSW 11.5 mph 16.1 mph N/A   Clear
7:15 AM 69.8 °F 48.2 °F 46% 29.96 in 10.0 mi WSW 10.4 mph - N/A   Clear
7:35 AM 69.8 °F 48.2 °F 46% 29.96 in 10.0 mi WSW 15.0 mph 19.6 mph N/A   Clear
7:55 AM 71.6 °F 48.2 °F 43% 29.96 in 10.0 mi WSW 11.5 mph 24.2 mph N/A   Clear
8:15 AM 71.6 °F 48.2 °F 43% 29.96 in 10.0 mi West 11.5 mph 17.3 mph N/A   Clear
8:35 AM 73.4 °F 48.2 °F 41% 29.96 in 10.0 mi WSW 12.7 mph 18.4 mph N/A   Clear
8:55 AM 73.4 °F 48.2 °F 41% 29.96 in 10.0 mi West 11.5 mph 18.4 mph N/A   Clear
9:15 AM 75.2 °F 46.4 °F 36% 29.96 in 10.0 mi West 15.0 mph 23.0 mph N/A   Clear
9:35 AM 77.0 °F 46.4 °F 34% 29.96 in 10.0 mi West 19.6 mph 24.2 mph N/A   Clear
9:55 AM 78.8 °F 46.4 °F 32% 29.96 in 10.0 mi West 17.3 mph 23.0 mph N/A   Clear
10:15 AM 78.8 °F 46.4 °F 32% 29.96 in 10.0 mi West 17.3 mph 25.3 mph N/A   Clear
10:35 AM 80.6 °F 46.4 °F 30% 29.96 in 10.0 mi WSW 12.7 mph 25.3 mph N/A   Clear
10:55 AM 80.6 °F 46.4 °F 30% 29.96 in 10.0 mi West 16.1 mph 26.5 mph N/A   Clear
11:15 AM 82.4 °F 46.4 °F 28% 29.96 in 10.0 mi West 16.1 mph 26.5 mph N/A   Clear
11:35 AM 82.4 °F 46.4 °F 28% 29.96 in 10.0 mi West 15.0 mph 26.5 mph N/A   Clear
11:55 AM 84.2 °F 46.4 °F 27% 29.96 in 10.0 mi West 17.3 mph 27.6 mph N/A   Clear
12:15 PM 86.0 °F 46.4 °F 25% 29.96 in 10.0 mi West 18.4 mph 28.8 mph N/A   Clear
12:35 PM 87.8 °F 48.2 °F 25% 29.95 in 10.0 mi West 19.6 mph 27.6 mph N/A   Clear
12:55 PM 87.8 °F 46.4 °F 24% 29.95 in 10.0 mi WSW 16.1 mph 27.6 mph N/A   Clear
1:15 PM 87.8 °F 44.6 °F 22% 29.94 in 10.0 mi West 19.6 mph 27.6 mph N/A   Clear
1:35 PM 87.8 °F 44.6 °F 22% 29.93 in 10.0 mi West 17.3 mph 27.6 mph N/A   Clear
1:55 PM 89.6 °F 44.6 °F 21% 29.93 in 10.0 mi WSW 23.0 mph 29.9 mph N/A   Clear
2:15 PM 89.6 °F 46.4 °F 22% 29.93 in 10.0 mi West 16.1 mph 26.5 mph N/A   Clear
2:35 PM 89.6 °F 46.4 °F 22% 29.92 in 10.0 mi West 15.0 mph 24.2 mph N/A   Clear
2:55 PM 89.6 °F 44.6 °F 21% 29.92 in 10.0 mi West 12.7 mph 23.0 mph N/A   Clear
3:15 PM 91.4 °F 46.4 °F 21% 29.92 in 10.0 mi SW 15.0 mph 26.5 mph N/A   Clear
3:35 PM 91.4 °F 48.2 °F 23% 29.91 in 10.0 mi WSW 13.8 mph 21.9 mph N/A   Clear
3:55 PM 91.4 °F 48.2 °F 23% 29.91 in 10.0 mi SW 16.1 mph 20.7 mph N/A   Clear
4:15 PM 91.4 °F 46.4 °F 21% 29.90 in 10.0 mi WSW 13.8 mph 23.0 mph N/A   Clear
4:35 PM 91.4 °F 46.4 °F 21% 29.90 in 10.0 mi West 16.1 mph 26.5 mph N/A   Clear
4:55 PM 91.4 °F 46.4 °F 21% 29.90 in 10.0 mi WSW 17.3 mph 29.9 mph N/A   Clear
5:15 PM 89.6 °F 48.2 °F 24% 29.90 in 10.0 mi WSW 12.7 mph 19.6 mph N/A   Clear
5:35 PM 89.6 °F 46.4 °F 22% 29.90 in 10.0 mi SW 10.4 mph 24.2 mph N/A   Clear
5:55 PM 89.6 °F 46.4 °F 22% 29.89 in 10.0 mi WSW 10.4 mph 24.2 mph N/A   Clear
6:15 PM 89.6 °F 46.4 °F 22% 29.89 in 10.0 mi WSW 18.4 mph 24.2 mph N/A   Clear
6:35 PM 87.8 °F 46.4 °F 24% 29.89 in 10.0 mi SW 19.6 mph 28.8 mph N/A   Clear
6:55 PM 87.8 °F 46.4 °F 24% 29.89 in 10.0 mi WSW 18.4 mph 24.2 mph N/A   Clear
7:15 PM 86.0 °F 46.4 °F 25% 29.89 in 10.0 mi WSW 12.7 mph 23.0 mph N/A   Clear
7:35 PM 84.2 °F 48.2 °F 29% 29.89 in 10.0 mi SW 15.0 mph 21.9 mph N/A   Clear
7:55 PM 84.2 °F 46.4 °F 27% 29.89 in 10.0 mi WSW 12.7 mph 18.4 mph N/A   Clear
8:15 PM 82.4 °F 46.4 °F 28% 29.89 in 10.0 mi WSW 11.5 mph - N/A   Clear
8:35 PM 80.6 °F 46.4 °F 30% 29.90 in 10.0 mi SW 9.2 mph - N/A   Clear
8:55 PM 80.6 °F 46.4 °F 30% 29.90 in 10.0 mi SW 8.1 mph - N/A   Clear
9:15 PM 78.8 °F 46.4 °F 32% 29.91 in 10.0 mi SW 10.4 mph 19.6 mph N/A   Clear
9:55 PM 78.8 °F 46.4 °F 32% 29.93 in 10.0 mi SW 11.5 mph 16.1 mph N/A   Clear
10:15 PM 77.0 °F 44.6 °F 32% 29.93 in 10.0 mi SW 8.1 mph - N/A   Clear
10:35 PM 73.4 °F 46.4 °F 38% 29.94 in 10.0 mi SW 6.9 mph - N/A   Clear
10:55 PM 71.6 °F 46.4 °F 41% 29.94 in 10.0 mi SSW 8.1 mph - N/A   Clear
11:15 PM 71.6 °F 48.2 °F 43% 29.93 in 10.0 mi SW 9.2 mph - N/A   Clear
11:35 PM 71.6 °F 48.2 °F 43% 29.94 in 10.0 mi SSW 9.2 mph - N/A   Clear
11:55 PM 71.6 °F 48.2 °F 43% 29.94 in 10.0 mi SSW 6.9 mph - N/A   Clear